Wind_Speed
74 74 83 85 82 89 85 93 100 100 103 102 109 111 112 119 113 106 113 109 100 93 92 91 90 89 87 84 81 77 72 68 63 61 62 74 84 90 89 95 99 95 95
76 84 85 86 87 90 89 95 106 99 106 117 115 112 120 117 118 112 111 111 100 94 94 92 91 87 84 78 72 68 66 63 60 58 62 69 83 90 94 96 102 103 102
82 86 88 85 90 95 96 107 106 108 119 119 118 125 121 131 112 111 110 105 99 98 98 96 87 81 75 68 65 62 60 57 53 52 58 63 77 83 92 95 101 104 107
94 93 91 92 95 98 105 107 119 120 122 119 126 125 125 127 115 107 107 101 100 99 99 91 80 72 67 62 57 53 49 47 45 44 49 54 64 73 84 93 97 104 106
99 97 99 96 100 107 112 124 127 124 122 126 129 125 126 131 115 102 98 100 99 100 94 85 74 66 61 55 49 45 43 39 35 35 38 44 51 63 73 86 93 95 104
107 102 101 108 112 117 124 129 124 121 124 125 127 128 129 127 112 102 99 98 96 93 85 74 68 61 54 48 43 41 37 33 31 31 33 35 42 49 61 75 86 92 97
107 109 115 116 123 123 126 126 125 120 124 125 128 132 129 119 113 105 96 92 87 82 75 69 62 54 48 42 40 36 33 32 30 25 29 31 34 41 50 60 74 86 94
113 120 123 129 131 135 128 127 126 129 132 132 133 136 129 120 110 99 93 85 76 71 67 61 53 47 43 37 36 33 31 31 30 24 25 25 27 30 38 49 60 71 80
121 127 127 132 133 129 124 133 134 136 135 134 130 135 119 113 99 96 89 77 69 63 60 51 46 41 38 34 32 31 29 27 29 23 22 23 24 26 31 36 42 49 58
126 129 131 131 130 129 132 133 133 139 139 136 136 120 112 105 98 92 80 71 65 61 53 45 41 36 34 33 31 30 29 30 29 27 23 24 24 22 22 28 32 36 40
131 134 136 131 128 129 133 134 135 132 134 126 121 112 109 98 91 83 72 65 62 58 48 41 37 34 32 32 31 32 32 31 28 30 27 26 25 24 26 26 28 28 29
132 135 130 131 135 130 133 136 132 128 117 118 108 109 99 93 85 74 67 62 58 52 44 39 34 33 31 32 33 34 35 35 31 31 32 30 29 29 30 28 29 30 28
135 138 136 134 137 136 133 133 127 119 114 109 106 100 89 82 76 68 61 58 52 46 40 36 34 31 30 33 35 38 39 38 34 31 34 37 38 37 36 32 32 32 32
141 132 132 136 133 139 136 126 121 115 107 105 98 90 83 74 67 62 58 54 47 42 38 35 31 30 30 33 35 40 42 41 39 34 36 39 39 37 40 39 38 36 35
143 143 140 145 134 135 127 122 114 107 101 97 89 80 73 65 61 59 54 49 43 39 36 34 30 30 30 33 35 40 45 45 45 42 39 39 43 43 43 42 43 42 41
144 139 143 138 137 132 122 114 107 99 95 88 79 72 64 60 58 54 49 45 40 37 35 33 30 29 30 31 34 39 45 49 49 47 46 42 42 45 48 51 50 49 48
139 137 133 128 125 122 115 107 98 92 85 77 69 62 58 57 53 48 44 42 39 36 33 32 30 30 30 31 33 38 42 49 52 50 50 48 50 46 46 47 46 46 48
131 127 128 122 114 108 100 93 87 83 77 69 61 58 55 51 46 43 41 40 38 35 33 32 30 29 31 32 33 37 43 51 53 55 53 55 53 52 50 51 53 50 50
125 118 110 108 104 95 91 83 80 75 67 62 57 54 50 46 42 41 40 39 37 35 34 32 31 30 31 32 34 36 40 44 51 55 57 58 59 59 59 58 57 58 57
111 104 99 95 93 86 81 78 71 64 60 57 54 51 46 42 40 40 39 38 37 35 35 33 32 32 33 32 34 36 40 43 46 51 58 63 64 63 62 60 58 55 53
99 95 90 86 82 78 76 68 61 58 55 53 50 47 43 41 39 39 38 38 36 36 36 35 35 33 34 35 35 37 38 43 46 49 53 55 56 57 56 55 56 57 57
88 84 81 77 74 69 63 60 56 54 52 48 45 43 42 41 41 39 38 37 37 36 37 38 37 37 35 36 38 39 41 43 46 48 50 52 54 55 55 54 53 54 54
77 75 74 69 63 60 56 54 53 51 49 45 43 42 42 42 41 40 39 38 37 37 37 38 39 39 39 39 40 42 43 44 47 50 52 53 54 55 55 56 57 58 58
70 66 63 59 58 55 53 52 50 49 47 45 43 42 42 40 40 41 41 39 38 38 39 39 40 40 41 41 42 42 44 46 48 51 53 55 57 58 60 61 62 62 63
61 58 57 56 55 54 52 51 50 48 46 46 44 43 42 41 42 42 42 41 40 40 41 41 41 42 42 42 42 43 45 46 49 51 53 55 58 59 60 61 62 62 64
57 57 57 55 54 52 51 50 49 47 46 44 44 43 43 43 44 43 43 43 42 42 41 41 42 43 44 44 44 43 43 45 47 48 50 52 54 56 58 59 60 61 62
Wind_Direction
316 316 321 317 308 314 309 314 319 313 313 309 313 314 309 321 321 320 319 320 314 308 302 298 297 297 297 294 292 289 285 280 272 263 250 241 236 232 229 229 227 230 232
319 315 314 314 311 313 314 311 312 309 306 313 314 313 315 324 321 318 318 320 313 307 301 299 299 300 297 295 291 288 283 278 271 263 252 239 236 231 228 227 228 228 230
315 310 310 311 313 317 312 314 308 308 311 313 313 314 320 322 320 318 318 316 311 307 304 302 302 300 298 295 291 285 280 275 269 258 251 242 238 234 229 227 228 229 232
313 320 311 311 314 312 313 311 315 309 311 313 316 316 317 324 319 316 317 314 311 308 306 304 304 300 297 293 287 283 279 273 266 255 248 244 238 236 232 229 229 228 232
312 317 317 313 312 310 309 314 315 311 310 312 316 316 320 320 316 316 315 313 310 309 307 305 304 301 296 291 289 284 277 272 266 258 249 243 239 235 233 230 232 230 232
310 315 315 316 314 313 314 315 314 313 311 312 314 317 316 318 314 314 312 311 311 308 305 303 301 297 294 292 288 281 279 275 268 262 253 243 237 232 231 231 231 231 233
311 312 314 314 314 313 312 313 313 311 312 315 315 315 317 315 313 311 310 311 309 307 305 303 299 295 294 291 284 282 277 271 268 257 253 247 236 229 228 230 232 232 234
309 311 311 313 314 314 312 310 309 314 315 314 314 316 315 313 311 310 309 310 309 307 302 298 295 296 291 287 280 277 270 266 263 255 249 247 240 231 226 227 228 232 236
309 310 311 310 311 311 308 311 309 312 314 315 315 316 313 313 310 310 310 310 310 305 300 298 296 293 288 281 274 270 266 258 257 253 242 234 227 220 220 221 222 225 231
309 309 309 310 311 311 309 310 307 310 312 312 311 314 314 310 308 309 309 312 310 305 301 299 296 291 284 277 266 263 260 250 249 252 238 234 219 218 214 214 213 218 223
305 305 307 308 308 309 310 311 312 311 311 312 313 312 311 309 309 308 309 311 308 303 300 299 296 288 280 270 259 255 250 250 240 239 238 232 223 217 208 207 204 209 214
304 306 307 306 309 309 308 308 310 311 311 312 312 310 309 308 307 307 309 308 305 301 300 298 293 286 276 265 256 252 248 248 238 229 226 225 223 220 218 217 214 208 203
305 305 306 306 306 306 307 308 309 310 310 311 311 308 307 306 304 306 305 305 301 299 297 296 290 283 272 261 253 247 247 245 239 224 221 221 221 225 223 223 213 210 210
304 303 304 306 304 304 306 308 310 311 309 311 308 305 306 303 303 303 302 301 299 298 296 294 288 281 271 256 251 245 243 241 242 233 220 224 225 226 226 227 227 222 223
302 304 304 303 303 305 305 307 308 308 309 307 305 306 302 301 302 301 300 298 298 297 295 293 286 278 269 254 248 242 241 241 241 241 234 225 227 228 228 230 229 230 231
299 300 300 301 302 302 305 307 307 306 306 305 306 303 300 301 299 298 296 295 297 295 293 291 283 276 266 251 248 240 238 239 240 242 244 243 240 237 231 232 237 241 237
298 297 297 300 300 301 303 304 303 303 303 303 302 299 299 298 297 296 294 295 296 293 291 288 282 277 265 250 246 236 236 235 240 240 242 244 245 247 244 243 241 245 247
296 298 297 297 300 302 302 301 303 301 302 302 299 299 299 297 296 296 295 295 294 291 289 285 280 276 266 250 249 238 233 233 236 240 242 242 244 246 246 248 253 254 252
295 297 298 298 299 300 301 302 300 301 301 299 300 298 296 295 296 296 294 293 291 288 286 283 279 272 265 254 249 244 237 234 234 238 241 243 246 248 250 250 252 256 256
294 296 296 298 299 299 298 298 299 299 298 299 297 295 294 295 295 293 291 290 288 285 283 279 276 270 266 258 250 247 238 235 235 235 238 242 245 247 249 250 252 253 253
294 295 297 298 296 296 297 297 297 297 297 297 295 293 293 295 293 290 289 287 286 283 279 277 273 268 264 261 254 250 244 240 238 239 240 242 244 245 246 247 249 251 252
294 294 294 293 294 295 295 295 295 296 295 294 293 293 294 294 291 288 286 285 283 280 276 275 273 269 266 260 256 252 247 246 245 246 247 248 248 249 250 249 248 248 250
292 292 291 292 293 293 293 293 294 293 292 291 291 292 293 291 288 287 285 283 280 278 274 270 269 268 266 263 258 254 252 248 246 246 247 248 249 250 250 250 250 251 251
290 290 290 291 291 291 292 292 290 289 290 290 291 291 289 286 285 285 284 281 280 277 275 272 268 266 265 263 262 258 255 252 251 251 251 251 251 251 252 252 252 252 253
289 290 290 290 290 290 290 290 289 288 289 290 289 288 286 284 284 282 280 278 277 276 274 273 270 268 265 264 263 261 261 259 256 254 254 253 252 254 254 255 255 254 254
289 290 289 289 289 288 288 288 288 287 287 286 286 284 281 282 282 280 279 278 276 275 273 270 268 266 265 265 263 263 262 261 260 258 257 257 257 257 257 257 258 257 257
Height
10623 10614 10607 10598 10589 10578 10565 10555 10543 10532 10520 10510 10500 10483 10469 10453 10435 10422 10404 10389 10373 10359 10345 10334 10323 10313 10304 10295 10286 10280 10278 10277 10282 10287 10290 10294 10300 10310 10323 10335 10345 10355 10363
10606 10598 10590 10582 10570 10559 10548 10538 10527 10516 10503 10489 10477 10460 10444 10422 10410 10395 10378 10363 10347 10334 10321 10310 10297 10287 10276 10267 10259 10254 10252 10251 10255 10261 10260 10265 10272 10282 10294 10306 10320 10329 10337
10590 10583 10574 10563 10551 10539 10530 10520 10508 10494 10483 10469 10454 10438 10417 10400 10382 10367 10351 10335 10322 10308 10295 10283 10272 10261 10251 10243 10237 10233 10231 10228 10230 10235 10235 10241 10247 10258 10270 10282 10295 10307 10314
10573 10563 10554 10543 10532 10521 10510 10498 10487 10475 10463 10447 10430 10409 10393 10373 10356 10341 10325 10308 10294 10281 10269 10258 10249 10238 10228 10223 10218 10214 10211 10210 10212 10215 10218 10221 10228 10237 10248 10259 10270 10285 10294
10552 10542 10531 10520 10512 10503 10491 10478 10465 10450 10436 10420 10406 10386 10369 10356 10334 10316 10300 10285 10270 10257 10244 10233 10224 10216 10208 10204 10200 10196 10195 10196 10197 10200 10203 10206 10211 10218 10229 10239 10248 10265 10273
10530 10518 10510 10503 10492 10480 10468 10453 10438 10426 10411 10396 10377 10361 10348 10328 10311 10294 10277 10262 10248 10235 10225 10215 10206 10199 10192 10187 10184 10181 10182 10182 10184 10187 10189 10193 10196 10203 10211 10222 10234 10245 10254
10509 10501 10490 10479 10469 10456 10442 10426 10413 10399 10382 10369 10353 10336 10321 10301 10286 10270 10255 10241 10228 10217 10205 10196 10189 10182 10176 10173 10170 10169 10170 10171 10173 10178 10178 10181 10186 10190 10198 10207 10217 10226 10234
10487 10477 10467 10456 10442 10429 10413 10400 10385 10371 10357 10346 10329 10310 10294 10274 10260 10244 10232 10219 10209 10200 10191 10183 10174 10167 10163 10161 10159 10159 10161 10163 10164 10170 10172 10174 10177 10181 10187 10194 10201 10209 10218
10465 10454 10442 10432 10418 10403 10388 10373 10357 10347 10330 10319 10302 10286 10268 10249 10234 10221 10209 10197 10190 10184 10176 10168 10160 10155 10151 10150 10150 10151 10153 10155 10157 10162 10165 10167 10170 10174 10179 10184 10190 10196 10203
10443 10432 10420 10405 10391 10377 10363 10347 10334 10321 10305 10290 10276 10258 10244 10228 10214 10201 10189 10178 10173 10168 10161 10154 10149 10144 10141 10141 10142 10143 10146 10148 10151 10153 10160 10161 10164 10168 10175 10179 10183 10188 10194
10419 10406 10393 10378 10364 10351 10337 10321 10309 10296 10280 10266 10252 10234 10219 10204 10193 10182 10171 10162 10159 10154 10147 10142 10137 10134 10132 10131 10133 10135 10138 10141 10146 10149 10152 10156 10161 10166 10169 10173 10178 10182 10187
10389 10377 10363 10351 10336 10323 10309 10296 10282 10269 10254 10242 10228 10211 10197 10184 10173 10164 10154 10149 10146 10140 10134 10129 10127 10124 10122 10122 10123 10126 10130 10134 10139 10143 10147 10151 10156 10160 10165 10169 10173 10177 10181
10360 10349 10336 10321 10310 10296 10284 10266 10256 10243 10230 10216 10205 10190 10176 10166 10156 10147 10140 10135 10132 10127 10121 10118 10115 10114 10114 10113 10115 10117 10120 10125 10130 10138 10141 10145 10149 10154 10158 10163 10167 10170 10175
10326 10314 10305 10294 10279 10267 10255 10240 10229 10216 10205 10192 10182 10168 10158 10149 10139 10131 10125 10121 10118 10113 10108 10106 10103 10103 10105 10105 10106 10108 10112 10116 10120 10127 10134 10137 10141 10146 10150 10155 10159 10164 10168
10296 10287 10274 10263 10248 10237 10224 10215 10203 10193 10181 10170 10160 10149 10140 10131 10123 10116 10110 10107 10104 10100 10096 10094 10093 10093 10095 10095 10096 10099 10102 10106 10111 10116 10122 10129 10132 10137 10142 10145 10149 10154 10158
10268 10257 10247 10233 10219 10208 10197 10188 10179 10167 10158 10148 10140 10131 10122 10114 10107 10101 10097 10094 10091 10089 10085 10083 10082 10083 10085 10086 10088 10090 10093 10097 10101 10105 10110 10116 10121 10125 10130 10134 10139 10143 10148
10237 10226 10216 10205 10193 10184 10173 10164 10155 10144 10136 10127 10121 10113 10106 10098 10091 10086 10083 10081 10078 10077 10075 10073 10072 10073 10075 10077 10079 10080 10084 10088 10090 10096 10100 10105 10109 10112 10117 10122 10127 10131 10134
10203 10194 10184 10174 10168 10158 10149 10139 10131 10121 10113 10107 10102 10095 10089 10082 10077 10073 10070 10068 10066 10064 10064 10062 10062 10063 10065 10066 10068 10070 10073 10077 10081 10085 10089 10093 10097 10100 10104 10108 10112 10117 10121
10172 10164 10156 10149 10141 10132 10124 10116 10108 10100 10093 10088 10082 10078 10073 10068 10063 10060 10058 10056 10054 10053 10052 10052 10052 10053 10055 10056 10058 10059 10062 10064 10069 10073 10077 10080 10084 10087 10091 10095 10098 10101 10105
10142 10137 10129 10122 10115 10107 10099 10093 10088 10081 10076 10070 10065 10061 10057 10054 10050 10048 10046 10044 10043 10041 10041 10041 10042 10042 10044 10045 10047 10049 10051 10053 10056 10060 10063 10065 10068 10071 10076 10080 10084 10087 10089
10114 10109 10103 10097 10091 10082 10077 10071 10067 10062 10058 10054 10048 10044 10041 10039 10037 10036 10034 10032 10031 10029 10029 10029 10031 10032 10032 10033 10035 10037 10039 10042 10044 10046 10049 10052 10054 10057 10061 10065 10068 10072 10075
10088 10082 10077 10072 10067 10062 10056 10051 10048 10044 10041 10038 10033 10029 10026 10024 10023 10023 10021 10020 10019 10018 10017 10017 10018 10020 10021 10022 10023 10024 10026 10029 10031 10034 10036 10038 10040 10043 10046 10049 10053 10056 10058
10061 10057 10054 10050 10046 10042 10038 10034 10030 10027 10025 10022 10019 10015 10012 10010 10009 10007 10008 10007 10006 10005 10005 10005 10006 10006 10007 10008 10009 10011 10012 10014 10017 10019 10021 10023 10025 10028 10030 10033 10036 10038 10041
10039 10036 10032 10028 10025 10023 10019 10017 10014 10011 10008 10006 10003 10000 9997 9996 9994 9993 9993 9993 9992 9991 9991 9992 9993 9993 9993 9994 9995 9996 9997 9999 10001 10003 10005 10007 10010 10012 10014 10016 10018 10020 10023
10018 10015 10012 10009 10006 10003 10001 9999 9997 9994 9992 9989 9987 9985 9983 9981 9980 9979 9979 9978 9977 9977 9977 9977 9978 9978 9979 9979 9980 9981 9982 9983 9984 9986 9987 9989 9991 9993 9996 9997 9999 10002 10005
9998 9995 9993 9991 9988 9986 9984 9982 9979 9977 9975 9973 9971 9969 9968 9966 9964 9964 9963 9962 9962 9962 9962 9963 9964 9964 9964 9964 9964 9965 9966 9966 9967 9968 9970 9971 9973 9974 9976 9978 9980 9981 9984